Date String (YYYY-MM-DD hh:mm:ss) UTC,Instrument flags,Ambient pressure (hPa),Sample flow (lpm),Bypass flow (lpm),Sample temperature (°C),Ambient temperature (°C),ASC tube jacket temperature (°C),LED temperature (°C),Box temperature (°C),Sample RH (%),Span deviation,Mass concentration (μg/m³),Mass concentration (μg/m³),Mass concentration (μg/m³)
DateTimeUTC,F1_M11,P_M11,Q1_M11,Q2_M11,T1_M11,T2_M11,T3_M11,T4_M11,T5_M11,U1_M11,ZSPAN_M11,X0_M11,X2_M11,X1_M11
2022-07-31 15:00:00,,0830.5,5.01,0.00,29.6,28.0,00.0,38.4,31.5,24.1,0000.0,0008.19,0005.37,0005.11
2022-07-31 15:01:00,,0830.5,5.00,0.00,29.6,28.1,00.0,38.4,31.5,23.8,0000.0,0008.20,0005.38,0005.09
2022-07-31 15:02:00,,0830.5,5.01,0.00,29.7,28.3,00.0,38.4,31.6,24.1,0000.0,0008.26,0005.38,0005.08
2022-07-31 15:03:00,,0830.6,5.00,0.00,29.7,28.4,00.0,38.4,31.6,23.4,0000.0,0009.02,0005.39,0005.07
2022-07-31 15:04:00,,0830.6,4.99,0.00,29.7,28.5,00.0,38.5,31.7,23.5,0000.0,0009.79,0005.36,0005.06
2022-07-31 15:05:00,,0830.6,5.01,0.00,29.7,28.6,00.0,38.5,31.7,23.3,0000.0,0009.63,0005.32,0005.03
2022-07-31 15:06:00,,0830.6,4.99,0.00,29.8,28.6,00.0,38.5,31.7,23.3,0000.0,0009.35,0005.30,0005.01
2022-07-31 15:07:00,,0830.6,5.00,0.00,29.8,28.0,00.0,38.5,31.5,22.8,0000.0,0009.52,0005.29,0005.01
2022-07-31 15:08:00,,0830.6,5.00,0.00,29.7,27.5,00.0,38.4,31.4,22.2,0000.0,0009.90,0005.25,0004.99
2022-07-31 15:09:00,,0830.6,5.01,0.00,29.7,27.4,00.0,38.4,31.3,24.0,0000.0,0009.94,0005.26,0004.98
2022-07-31 15:10:00,,0830.6,5.00,0.00,29.6,27.5,00.0,38.4,31.3,23.8,0000.0,0009.95,0005.26,0004.98
2022-07-31 15:11:00,,0830.6,4.99,0.00,29.6,27.7,00.0,38.4,31.3,24.0,0000.0,0009.90,0005.25,0004.97
2022-07-31 15:12:00,,0830.6,5.00,0.00,29.6,27.8,00.0,38.4,31.4,23.3,0000.0,0009.87,0005.24,0004.98
2022-07-31 15:13:00,,0830.6,5.00,0.00,29.6,28.0,00.0,38.4,31.4,22.9,0000.0,0009.83,0005.25,0004.98
2022-07-31 15:14:00,,0830.6,5.00,0.00,29.6,28.1,00.0,38.4,31.5,23.3,0000.0,0009.00,0005.21,0004.97
2022-07-31 15:15:00,,0830.6,4.99,0.00,29.6,28.3,00.0,38.4,31.5,22.2,0000.0,0008.14,0005.18,0004.96
2022-07-31 15:16:00,,0830.6,5.01,0.00,29.6,28.4,00.0,38.4,31.6,23.1,0000.0,0008.20,0005.20,0004.97
2022-07-31 15:17:00,,0830.6,4.99,0.00,29.7,28.5,00.0,38.4,31.6,24.4,0000.0,0008.27,0005.22,0004.97
2022-07-31 15:18:00,,0830.6,5.00,0.00,29.7,28.6,00.0,38.4,31.7,24.1,0000.0,0008.05,0005.23,0004.96
2022-07-31 15:19:00,,0830.6,5.00,0.00,29.7,28.5,00.0,38.4,31.7,23.9,0000.0,0007.73,0005.26,0004.97
2022-07-31 15:20:00,,0830.6,5.00,0.00,29.7,27.8,00.0,38.4,31.5,23.4,0000.0,0007.69,0005.25,0004.97
2022-07-31 15:21:00,,0830.6,4.99,0.00,29.7,27.5,00.0,38.4,31.4,23.7,0000.0,0007.74,0005.23,0004.97
2022-07-31 15:22:00,,0830.6,5.00,0.00,29.6,27.5,00.0,38.4,31.4,24.1,0000.0,0008.11,0005.24,0004.97
2022-07-31 15:23:00,,0830.6,5.01,0.00,29.6,27.6,00.0,38.4,31.4,24.0,0000.0,0008.18,0005.24,0004.97
2022-07-31 15:24:00,,0830.6,5.00,0.00,29.6,27.7,00.0,38.4,31.4,24.7,0000.0,0008.12,0005.21,0004.96
2022-07-31 15:25:00,,0830.6,5.00,0.00,29.6,27.9,00.0,38.4,31.4,24.6,0000.0,0008.19,0005.22,0004.97
2022-07-31 15:26:00,,0830.6,5.00,0.00,29.6,28.0,00.0,38.4,31.5,25.6,0000.0,0008.22,0005.23,0004.97
2022-07-31 15:27:00,,0830.7,5.00,0.00,29.6,28.2,00.0,38.4,31.5,24.8,0000.0,0008.19,0005.21,0004.97
2022-07-31 15:28:00,,0830.7,4.99,0.00,29.6,28.3,00.0,38.4,31.5,24.6,0000.0,0008.19,0005.22,0004.98
2022-07-31 15:29:00,,0830.7,5.00,0.00,29.7,28.4,00.0,38.4,31.6,24.1,0000.0,0008.20,0005.22,0004.98
2022-07-31 15:30:00,,0830.7,5.00,0.00,29.7,28.5,00.0,38.4,31.7,26.5,0000.0,0008.12,0005.20,0004.98
2022-07-31 15:31:00,,0830.7,4.99,0.00,29.7,28.3,00.0,38.4,31.6,26.2,0000.0,0008.09,0005.19,0004.98
2022-07-31 15:32:00,,0830.7,5.01,0.00,29.6,27.6,00.0,38.4,31.4,26.5,0000.0,0008.01,0005.21,0005.00
2022-07-31 15:33:00,,0830.8,5.00,0.00,29.6,27.4,00.0,38.4,31.3,26.5,0000.0,0007.88,0005.23,0005.00
2022-07-31 15:34:00,,0830.8,4.99,0.00,29.6,27.4,00.0,38.3,31.3,26.8,0000.0,0007.87,0005.24,0005.01
2022-07-31 15:35:00,,0830.8,5.00,0.00,29.5,27.5,00.0,38.3,31.3,27.4,0000.0,0007.86,0005.26,0005.01
2022-07-31 15:36:00,,0830.8,5.01,0.00,29.5,27.7,00.0,38.3,31.4,28.7,0000.0,0007.78,0005.26,0005.02
2022-07-31 15:37:00,,0830.8,5.00,0.00,29.5,27.9,00.0,38.3,31.4,29.5,0000.0,0007.86,0005.30,0005.03
2022-07-31 15:38:00,,0830.8,4.99,0.00,29.5,28.0,00.0,38.3,31.4,29.8,0000.0,0007.96,0005.37,0005.06
2022-07-31 15:39:00,,0830.8,4.99,0.00,29.6,28.2,00.0,38.3,31.5,30.7,0000.0,0008.05,0005.41,0005.07
2022-07-31 15:40:00,,0830.8,4.99,0.00,29.6,28.3,00.0,38.4,31.5,30.0,0000.0,0008.23,0005.44,0005.08
2022-07-31 15:41:00,,0830.7,5.00,0.00,29.6,28.4,00.0,38.4,31.6,30.9,0000.0,0008.32,0005.47,0005.09
2022-07-31 15:42:00,,0830.8,5.00,0.00,29.7,28.3,00.0,38.4,31.6,30.8,0000.0,0008.40,0005.50,0005.11
2022-07-31 15:43:00,,0830.8,5.01,0.00,29.6,27.7,00.0,38.3,31.4,30.5,0000.0,0008.51,0005.53,0005.11
2022-07-31 15:44:00,,0830.8,4.99,0.00,29.6,27.3,00.0,38.3,31.3,31.4,0000.0,0008.37,0005.56,0005.13
2022-07-31 15:45:00,,0830.8,5.00,0.00,29.5,27.3,00.0,38.3,31.2,31.3,0000.0,0008.45,0005.60,0005.14
2022-07-31 15:46:00,,0830.7,5.01,0.00,29.5,27.4,00.0,38.3,31.2,32.2,0000.0,0008.51,0005.62,0005.16
2022-07-31 15:47:00,,0830.8,4.99,0.00,29.5,27.6,00.0,38.3,31.3,32.4,0000.0,0008.56,0005.64,0005.17
2022-07-31 15:48:00,,0830.8,5.01,0.00,29.5,27.8,00.0,38.3,31.3,33.0,0000.0,0008.64,0005.65,0005.19
2022-07-31 15:49:00,,0830.8,5.00,0.00,29.5,27.9,00.0,38.3,31.4,32.5,0000.0,0008.66,0005.62,0005.19
2022-07-31 15:50:00,,0830.8,5.00,0.00,29.5,28.1,00.0,38.3,31.4,32.0,0000.0,0008.84,0005.61,0005.20
2022-07-31 15:51:00,,0830.8,4.98,0.00,29.5,28.2,00.0,38.3,31.4,32.6,0000.0,0008.67,0005.60,0005.22
2022-07-31 15:52:00,,0830.8,5.00,0.00,29.5,28.4,00.0,38.3,31.5,32.7,0000.0,0008.65,0005.62,0005.25
2022-07-31 15:53:00,,0830.8,5.00,0.00,29.6,28.3,00.0,38.3,31.5,33.6,0000.0,0008.70,0005.66,0005.28
2022-07-31 15:54:00,,0830.7,5.00,0.00,29.6,27.7,00.0,38.3,31.4,33.9,0000.0,0008.64,0005.67,0005.31
2022-07-31 15:55:00,,0830.7,5.00,0.00,29.5,27.3,00.0,38.3,31.3,33.3,0000.0,0008.66,0005.70,0005.33
2022-07-31 15:56:00,,0830.7,4.99,0.00,29.5,27.3,00.0,38.2,31.2,33.2,0000.0,0008.75,0005.71,0005.34
2022-07-31 15:57:00,,0830.8,5.01,0.00,29.4,27.4,00.0,38.2,31.2,32.6,0000.0,0008.99,0005.76,0005.36
2022-07-31 15:58:00,,0830.8,4.99,0.00,29.4,27.5,00.0,38.2,31.2,32.4,0000.0,0009.03,0005.78,0005.37
2022-07-31 15:59:00,,0830.8,5.01,0.00,29.4,27.7,00.0,38.2,31.2,31.9,0000.0,0009.01,0005.79,0005.37
